Location: Arboyeti
(42.1122°N, 44.6017°E)
Time: 04:05:33
(UTC+00:00)

AQUA - Pass Details

Date: 19 April 2021
Orbit: 701 x 704 km, 98.2° (Epoch: 09 May)

Event Time Altitude Azimuth Distance (km) Brightness Sun altitude
Rises 22:59:17 0° 13° (NNE) 3,097 8.1 -29.9°
Reaches altitude 10° 23:01:32 10° 13° (NNE) 2,174 7.1 -29.6°
Enters shadow 23:05:15 55° 15° (NNE) 846 4.4 -29.2°
